EZY49CM EGGW-LOWI

Flight info

Callsign EZY49CM
Flight time 1h 25m
Altitude 37000
Route MATCH Q295 BRAIN P44 DAGGA M85 ITVIP L10 DVR UL9 KONAN DCT KOK DCT KOMOB DCT PITES DCT KRH DCT TEDGO DCT UTABA M738 MADEB MADEB1B
Aircraft A320/M-SDE2E3FGHIJ1RWXYZ/LB1

Departure

Time 2026-05-07 17:32
Airport London Luton Airport (EGGW)

Arrival

Time 2026-05-07 18:58
Airport Innsbruck Airport (LOWI)
Time Latitude Longitude Altitude Speed Heading
2026-05-07 16:58 51.88093 -0.37331 508 ft 0 kts 342°
2026-05-07 17:22 51.88083 -0.37326 508 ft 4 kts 342°
2026-05-07 17:22 51.88058 -0.37312 508 ft 4 kts 342°
2026-05-07 17:22 51.88037 -0.37302 508 ft 4 kts
2026-05-07 17:23 51.88020 -0.37321 508 ft 4 kts 68°
2026-05-07 17:23 51.88012 -0.37360 508 ft 4 kts 72°
2026-05-07 17:23 51.88005 -0.37391 508 ft 0 kts 72°
2026-05-07 17:25 51.88012 -0.37359 508 ft 11 kts 72°
2026-05-07 17:25 51.88040 -0.37220 508 ft 14 kts 72°
2026-05-07 17:25 51.88000 -0.37123 508 ft 16 kts 161°
2026-05-07 17:26 51.87879 -0.37058 510 ft 22 kts 162°
2026-05-07 17:26 51.87746 -0.36988 518 ft 18 kts 162°
2026-05-07 17:26 51.87650 -0.36953 525 ft 11 kts 198°
2026-05-07 17:26 51.87600 -0.37136 522 ft 22 kts 254°
2026-05-07 17:27 51.87580 -0.37349 522 ft 16 kts 282°
2026-05-07 17:27 51.87542 -0.37470 521 ft 13 kts 201°
2026-05-07 17:27 51.87493 -0.37592 523 ft 16 kts 255°
2026-05-07 17:27 51.87456 -0.37814 522 ft 22 kts 255°
2026-05-07 17:28 51.87411 -0.38020 524 ft 15 kts 230°
2026-05-07 17:28 51.87351 -0.38080 522 ft 0 kts 204°
2026-05-07 17:29 51.87349 -0.38082 522 ft 1 kts 205°
2026-05-07 17:29 51.87295 -0.38112 522 ft 11 kts 180°
2026-05-07 17:29 51.87227 -0.38208 523 ft 19 kts 252°
2026-05-07 17:30 51.87193 -0.38318 520 ft 2 kts 311°
2026-05-07 17:30 51.87213 -0.38284 521 ft 6 kts 76°
2026-05-07 17:30 51.87217 -0.38260 522 ft 0 kts 74°
2026-05-07 17:31 51.87241 -0.38123 524 ft 44 kts 75°
2026-05-07 17:32 51.87401 -0.37196 521 ft 124 kts 74°
2026-05-07 17:32 51.87687 -0.35613 830 ft 158 kts 74°
2026-05-07 17:32 51.87987 -0.33920 1707 ft 156 kts 76°
2026-05-07 17:32 51.88281 -0.32182 2307 ft 169 kts 76°
2026-05-07 17:33 51.88611 -0.30219 2584 ft 192 kts 76°
2026-05-07 17:33 51.88985 -0.28007 2854 ft 214 kts 76°
2026-05-07 17:33 51.89407 -0.25535 3145 ft 240 kts 76°
2026-05-07 17:33 51.89467 -0.22796 3583 ft 257 kts 108°
2026-05-07 17:34 51.88468 -0.20412 4326 ft 261 kts 144°
2026-05-07 17:34 51.86862 -0.18961 5116 ft 265 kts 156°
2026-05-07 17:34 51.85168 -0.17740 6012 ft 267 kts 158°
2026-05-07 17:34 51.83440 -0.16573 6857 ft 270 kts 159°
2026-05-07 17:35 51.81691 -0.15396 7699 ft 273 kts 158°
2026-05-07 17:35 51.79950 -0.14204 8531 ft 276 kts 158°
2026-05-07 17:35 51.78151 -0.12945 9372 ft 279 kts 157°
2026-05-07 17:35 51.76518 -0.11316 10149 ft 285 kts 136°
2026-05-07 17:36 51.75485 -0.08563 10845 ft 293 kts 107°
2026-05-07 17:36 51.75366 -0.05240 11378 ft 308 kts 86°
2026-05-07 17:36 51.75618 -0.01676 11573 ft 331 kts 84°
2026-05-07 17:36 51.75945 0.02072 12046 ft 342 kts 83°
2026-05-07 17:37 51.76300 0.05906 12710 ft 347 kts 83°
2026-05-07 17:37 51.76653 0.09784 13412 ft 351 kts 84°
2026-05-07 17:37 51.76996 0.13705 14100 ft 354 kts 83°
2026-05-07 17:37 51.77327 0.17658 14682 ft 358 kts 84°
2026-05-07 17:38 51.77655 0.21663 15268 ft 361 kts 84°
2026-05-07 17:38 51.77985 0.25716 15845 ft 365 kts 84°
2026-05-07 17:38 51.78315 0.29806 16414 ft 370 kts 84°
2026-05-07 17:38 51.78644 0.33903 16998 ft 373 kts 84°
2026-05-07 17:39 51.78981 0.38089 17562 ft 378 kts 83°
2026-05-07 17:39 51.79321 0.42315 18128 ft 381 kts 83°
2026-05-07 17:39 51.79663 0.46592 18653 ft 385 kts 83°
2026-05-07 17:39 51.80004 0.50907 19135 ft 389 kts 83°
2026-05-07 17:40 51.80328 0.55260 19636 ft 391 kts 87°
2026-05-07 17:40 51.80101 0.59620 20108 ft 391 kts 107°
2026-05-07 17:40 51.78991 0.63609 20568 ft 390 kts 127°
2026-05-07 17:40 51.77126 0.66761 21041 ft 388 kts 147°
2026-05-07 17:41 51.74728 0.68710 21494 ft 386 kts 166°
2026-05-07 17:41 51.72133 0.69657 21947 ft 387 kts 171°
2026-05-07 17:41 51.69471 0.70489 22423 ft 390 kts 171°
2026-05-07 17:41 51.66802 0.71325 22889 ft 393 kts 170°
2026-05-07 17:42 51.64215 0.72839 23331 ft 400 kts 153°
2026-05-07 17:42 51.61932 0.75488 23737 ft 406 kts 143°
2026-05-07 17:42 51.59742 0.78386 24115 ft 409 kts 142°
2026-05-07 17:42 51.57579 0.81288 24488 ft 411 kts 142°
2026-05-07 17:43 51.55382 0.84250 24848 ft 414 kts 142°
2026-05-07 17:43 51.53171 0.87229 25209 ft 416 kts 142°
2026-05-07 17:43 51.50942 0.90222 25564 ft 418 kts 142°
2026-05-07 17:43 51.48696 0.93225 25912 ft 420 kts 143°
2026-05-07 17:44 51.46436 0.96227 26254 ft 422 kts 143°
2026-05-07 17:44 51.44162 0.99234 26602 ft 425 kts 143°
2026-05-07 17:44 51.41941 1.02390 26932 ft 429 kts 134°
2026-05-07 17:44 51.40242 1.06352 27250 ft 436 kts 118°
2026-05-07 17:45 51.38965 1.10716 27565 ft 439 kts 116°
2026-05-07 17:45 51.37691 1.15176 27891 ft 441 kts 116°
2026-05-07 17:45 51.36418 1.19662 28219 ft 444 kts 116°
2026-05-07 17:45 51.35135 1.24174 28542 ft 446 kts 116°
2026-05-07 17:46 51.33847 1.28694 28862 ft 448 kts 116°
2026-05-07 17:46 51.32547 1.33235 29163 ft 450 kts 116°
2026-05-07 17:46 51.31231 1.37811 29463 ft 453 kts 116°
2026-05-07 17:46 51.29905 1.42409 29762 ft 455 kts 117°
2026-05-07 17:47 51.28589 1.46960 30039 ft 457 kts 117°
2026-05-07 17:47 51.27248 1.51581 30289 ft 459 kts 117°
2026-05-07 17:47 51.25896 1.56227 30523 ft 461 kts 117°
2026-05-07 17:47 51.24546 1.60866 30752 ft 463 kts 117°
2026-05-07 17:48 51.23183 1.65545 30976 ft 464 kts 117°
2026-05-07 17:48 51.21821 1.70213 31060 ft 464 kts 117°
2026-05-07 17:48 51.19085 1.79562 31373 ft 464 kts 117°
2026-05-07 17:49 51.17731 1.84177 31720 ft 463 kts 117°
2026-05-07 17:49 51.16365 1.88833 32057 ft 463 kts 117°
2026-05-07 17:49 51.14999 1.93480 32391 ft 462 kts 117°
2026-05-07 17:49 51.13777 1.98209 32711 ft 463 kts 109°
2026-05-07 17:50 51.12991 2.03178 33023 ft 464 kts 100°
2026-05-07 17:50 51.12641 2.08299 33328 ft 465 kts 95°
2026-05-07 17:50 51.12376 2.13431 33638 ft 464 kts 96°
2026-05-07 17:50 51.12102 2.18544 33957 ft 464 kts 96°
2026-05-07 17:51 51.11825 2.23596 34238 ft 463 kts 96°
2026-05-07 17:51 51.11541 2.28701 34487 ft 463 kts 96°
2026-05-07 17:51 51.11254 2.33807 34734 ft 463 kts 96°
2026-05-07 17:51 51.10969 2.38912 34975 ft 462 kts 96°
2026-05-07 17:52 51.10682 2.44014 35229 ft 462 kts 96°
2026-05-07 17:52 51.10395 2.49106 35452 ft 461 kts 96°
2026-05-07 17:52 51.10106 2.54182 35673 ft 461 kts 96°
2026-05-07 17:52 51.09808 2.59267 35888 ft 461 kts 98°
2026-05-07 17:53 51.09209 2.64260 36086 ft 458 kts 108°
2026-05-07 17:53 51.08150 2.69028 36293 ft 456 kts 116°
2026-05-07 17:53 51.07218 2.72012 36419 ft 454 kts 120°
2026-05-07 17:53 51.05253 2.77890 36670 ft 454 kts 120°
2026-05-07 17:54 51.03773 2.82326 36873 ft 454 kts 120°
2026-05-07 17:54 51.02773 2.85323 37003 ft 454 kts 120°
2026-05-07 17:54 50.99817 2.94180 37074 ft 452 kts 120°
2026-05-07 17:55 50.96875 3.02941 37072 ft 452 kts 120°
2026-05-07 17:55 50.93910 3.11758 37069 ft 452 kts 120°
2026-05-07 17:56 50.90958 3.20550 37063 ft 452 kts 120°
2026-05-07 17:56 50.88097 3.29373 37052 ft 452 kts 118°
2026-05-07 17:57 50.85259 3.38305 37058 ft 452 kts 118°
2026-05-07 17:57 50.82414 3.47205 37057 ft 453 kts 119°
2026-05-07 17:58 50.79564 3.56021 37057 ft 453 kts 119°
2026-05-07 17:58 50.76668 3.64896 37061 ft 453 kts 119°
2026-05-07 17:59 50.73770 3.73756 37070 ft 454 kts 119°
2026-05-07 17:59 50.70878 3.82626 37066 ft 454 kts 119°
2026-05-07 18:00 50.67978 3.91476 37067 ft 454 kts 120°
2026-05-07 18:00 50.65072 4.00259 37077 ft 453 kts 120°
2026-05-07 18:01 50.62149 4.09063 37077 ft 453 kts 120°
2026-05-07 18:01 50.59226 4.17868 37089 ft 453 kts 120°
2026-05-07 18:02 50.54851 4.31000 37085 ft 454 kts 120°
2026-05-07 18:03 50.51908 4.39781 37089 ft 454 kts 120°
2026-05-07 18:03 50.48957 4.48567 37092 ft 454 kts 120°
2026-05-07 18:04 50.45999 4.57344 37094 ft 454 kts 120°
2026-05-07 18:04 50.43051 4.66028 37092 ft 454 kts 120°
2026-05-07 18:05 50.40076 4.74763 37089 ft 454 kts 120°
2026-05-07 18:05 50.37101 4.83497 37087 ft 454 kts 120°
2026-05-07 18:06 50.34121 4.92226 37090 ft 453 kts 120°
2026-05-07 18:06 50.31153 5.00876 37068 ft 453 kts 120°
2026-05-07 18:07 50.28165 5.09566 37063 ft 453 kts 120°
2026-05-07 18:07 50.25162 5.18284 37069 ft 454 kts 120°
2026-05-07 18:08 50.22154 5.26943 37073 ft 454 kts 121°
2026-05-07 18:08 50.19149 5.35545 37073 ft 454 kts 121°
2026-05-07 18:09 50.16124 5.44211 37076 ft 454 kts 121°
2026-05-07 18:09 50.13095 5.52875 37079 ft 454 kts 121°
2026-05-07 18:10 50.10055 5.61514 37079 ft 454 kts 121°
2026-05-07 18:10 50.07029 5.70097 37081 ft 454 kts 121°
2026-05-07 18:11 50.03985 5.78700 37069 ft 454 kts 121°
2026-05-07 18:11 50.00931 5.87306 37069 ft 454 kts 121°
2026-05-07 18:12 49.97873 5.95888 37068 ft 454 kts 121°
2026-05-07 18:12 49.94810 6.04458 37068 ft 454 kts 121°
2026-05-07 18:13 49.91755 6.12977 37062 ft 454 kts 121°
2026-05-07 18:13 49.88672 6.21550 37067 ft 454 kts 121°
2026-05-07 18:14 49.85588 6.30082 37062 ft 454 kts 121°
2026-05-07 18:14 49.82514 6.38564 37061 ft 454 kts 121°
2026-05-07 18:15 49.79422 6.47080 37064 ft 454 kts 121°
2026-05-07 18:15 49.76317 6.55591 37060 ft 454 kts 121°
2026-05-07 18:16 49.73202 6.64117 37060 ft 454 kts 121°
2026-05-07 18:16 49.70097 6.72565 37063 ft 454 kts 121°
2026-05-07 18:17 49.66968 6.81069 37066 ft 454 kts 121°
2026-05-07 18:17 49.63835 6.89553 37068 ft 454 kts 122°
2026-05-07 18:18 49.60710 6.97984 37071 ft 455 kts 122°
2026-05-07 18:18 49.57571 7.06444 37071 ft 455 kts 122°
2026-05-07 18:19 49.54417 7.14910 37071 ft 455 kts 122°
2026-05-07 18:19 49.51273 7.23293 37042 ft 455 kts 122°
2026-05-07 18:20 49.48095 7.31747 37055 ft 456 kts 122°
2026-05-07 18:20 49.44916 7.40196 37059 ft 456 kts 122°
2026-05-07 18:21 49.41744 7.48594 37060 ft 456 kts 122°
2026-05-07 18:21 49.38545 7.57034 37047 ft 457 kts 122°
2026-05-07 18:22 49.35334 7.65455 37045 ft 457 kts 122°
2026-05-07 18:22 49.32120 7.73877 37050 ft 457 kts 122°
2026-05-07 18:23 49.28897 7.82290 37055 ft 458 kts 122°
2026-05-07 18:23 49.25693 7.90649 37062 ft 458 kts 122°
2026-05-07 18:24 49.22453 7.99060 37055 ft 458 kts 122°
2026-05-07 18:24 49.19206 8.07461 37054 ft 458 kts 122°
2026-05-07 18:25 49.15959 8.15850 37054 ft 459 kts 122°
2026-05-07 18:25 49.12703 8.24213 37058 ft 459 kts 122°
2026-05-07 18:26 49.09422 8.32607 37062 ft 460 kts 123°
2026-05-07 18:26 49.06137 8.41001 37064 ft 460 kts 123°
2026-05-07 18:27 49.02865 8.49335 37064 ft 460 kts 123°
2026-05-07 18:27 48.99548 8.57685 37070 ft 459 kts 126°
2026-05-07 18:28 48.95567 8.65229 37063 ft 457 kts 132°
2026-05-07 18:28 48.91494 8.72625 37066 ft 457 kts 132°
2026-05-07 18:29 48.87403 8.80047 37066 ft 458 kts 132°
2026-05-07 18:29 48.83304 8.87464 37066 ft 458 kts 132°
2026-05-07 18:30 48.79212 8.94821 37060 ft 458 kts 133°
2026-05-07 18:30 48.75103 9.02209 37065 ft 458 kts 132°
2026-05-07 18:31 48.70977 9.09605 37048 ft 458 kts 133°
2026-05-07 18:31 48.66880 9.16928 37052 ft 458 kts 133°
2026-05-07 18:32 48.62512 9.23900 37050 ft 454 kts 145°
2026-05-07 18:32 48.57097 9.28581 37050 ft 446 kts 163°
2026-05-07 18:33 48.51263 9.31816 36385 ft 445 kts 163°
2026-05-07 18:33 48.48348 9.33444 35793 ft 445 kts 163°
2026-05-07 18:33 48.45453 9.35069 35311 ft 441 kts 163°
2026-05-07 18:33 48.42624 9.36655 34858 ft 438 kts 163°
2026-05-07 18:34 48.39778 9.38247 34405 ft 434 kts 163°
2026-05-07 18:34 48.36949 9.39826 33941 ft 431 kts 162°
2026-05-07 18:34 48.34146 9.41387 33426 ft 428 kts 162°
2026-05-07 18:34 48.31364 9.42932 32925 ft 424 kts 162°
2026-05-07 18:35 48.28602 9.44459 32432 ft 421 kts 162°
2026-05-07 18:35 48.25845 9.45975 31938 ft 418 kts 163°
2026-05-07 18:35 48.23137 9.47356 31492 ft 414 kts 165°
2026-05-07 18:35 48.20384 9.48604 31033 ft 410 kts 167°
2026-05-07 18:36 48.17641 9.49754 30570 ft 406 kts 167°
2026-05-07 18:36 48.14929 9.50857 30128 ft 403 kts 167°
2026-05-07 18:36 48.12227 9.51959 29609 ft 400 kts 167°
2026-05-07 18:36 48.09577 9.53061 29105 ft 397 kts 167°
2026-05-07 18:37 48.06922 9.54193 28626 ft 393 kts 167°
2026-05-07 18:37 48.05183 9.54946 28308 ft 391 kts 166°
2026-05-07 18:37 48.01832 9.56892 27675 ft 390 kts 155°
2026-05-07 18:37 47.99510 9.58999 27212 ft 389 kts 146°
2026-05-07 18:38 47.97333 9.61377 26752 ft 386 kts 146°
2026-05-07 18:38 47.95895 9.62940 26449 ft 384 kts 146°
2026-05-07 18:38 47.93739 9.65270 26019 ft 381 kts 146°
2026-05-07 18:38 47.91593 9.67574 25598 ft 378 kts 147°
2026-05-07 18:39 47.89466 9.69854 25180 ft 375 kts 147°
2026-05-07 18:39 47.87363 9.72110 24770 ft 372 kts 147°
2026-05-07 18:39 47.85270 9.74354 24358 ft 369 kts 147°
2026-05-07 18:39 47.83194 9.76581 23940 ft 367 kts 146°
2026-05-07 18:40 47.81132 9.78800 23511 ft 364 kts 146°
2026-05-07 18:40 47.79088 9.81006 23057 ft 362 kts 146°
2026-05-07 18:40 47.77053 9.83200 22613 ft 359 kts 146°
2026-05-07 18:40 47.75032 9.85367 22183 ft 356 kts 146°
2026-05-07 18:41 47.73026 9.87513 21758 ft 354 kts 146°
2026-05-07 18:41 47.71036 9.89641 21350 ft 351 kts 146°
2026-05-07 18:41 47.69082 9.91724 21045 ft 349 kts 146°
2026-05-07 18:41 47.67098 9.93835 21036 ft 350 kts 146°
2026-05-07 18:42 47.65120 9.95939 21042 ft 351 kts 146°
2026-05-07 18:42 47.63119 9.98066 20791 ft 350 kts 146°
2026-05-07 18:42 47.61169 10.00141 20538 ft 348 kts 146°
2026-05-07 18:42 47.59207 10.02228 20292 ft 347 kts 147°
2026-05-07 18:43 47.57250 10.04302 20034 ft 345 kts 147°
2026-05-07 18:43 47.55291 10.06378 19788 ft 344 kts 146°
2026-05-07 18:43 47.53344 10.08444 19536 ft 343 kts 146°
2026-05-07 18:43 47.51405 10.10506 19293 ft 342 kts 146°
2026-05-07 18:44 47.49469 10.12560 19048 ft 341 kts 146°
2026-05-07 18:44 47.47568 10.14571 18811 ft 340 kts 146°
2026-05-07 18:44 47.45643 10.16602 18569 ft 339 kts 147°
2026-05-07 18:44 47.43717 10.18623 18328 ft 337 kts 147°
2026-05-07 18:45 47.41768 10.20528 18074 ft 335 kts 150°
2026-05-07 18:45 47.39782 10.22350 17795 ft 334 kts 151°
2026-05-07 18:45 47.37798 10.24116 17521 ft 332 kts 151°
2026-05-07 18:45 47.35824 10.25869 17259 ft 331 kts 150°
2026-05-07 18:46 47.34048 10.27967 16995 ft 332 kts 135°
2026-05-07 18:46 47.32660 10.30688 16731 ft 333 kts 120°
2026-05-07 18:46 47.31778 10.33844 16473 ft 333 kts 105°
2026-05-07 18:46 47.31307 10.37183 16215 ft 332 kts 102°
2026-05-07 18:47 47.30856 10.40516 15958 ft 331 kts 102°
2026-05-07 18:47 47.30401 10.43837 15704 ft 329 kts 102°
2026-05-07 18:47 47.29943 10.47144 15455 ft 327 kts 102°
2026-05-07 18:47 47.29488 10.50412 15137 ft 325 kts 103°
2026-05-07 18:48 47.29029 10.53686 14746 ft 327 kts 102°
2026-05-07 18:48 47.28644 10.56983 14347 ft 328 kts 95°
2026-05-07 18:48 47.28683 10.60307 13946 ft 328 kts 87°
2026-05-07 18:48 47.28828 10.63680 13506 ft 330 kts 87°
2026-05-07 18:49 47.28965 10.67056 13121 ft 328 kts 87°
2026-05-07 18:49 47.29095 10.70355 13037 ft 318 kts 87°
2026-05-07 18:49 47.29224 10.73603 13050 ft 315 kts 87°
2026-05-07 18:49 47.29352 10.76828 13053 ft 316 kts 87°
2026-05-07 18:50 47.29483 10.80059 13051 ft 316 kts 87°
2026-05-07 18:50 47.29612 10.83296 13047 ft 316 kts 87°
2026-05-07 18:50 47.29736 10.86477 13048 ft 309 kts 87°
2026-05-07 18:50 47.29856 10.89576 13046 ft 296 kts 87°
2026-05-07 18:51 47.29968 10.92539 13048 ft 283 kts 87°
2026-05-07 18:51 47.30076 10.95373 13049 ft 270 kts 87°
2026-05-07 18:51 47.30177 10.98066 13048 ft 258 kts 88°
2026-05-07 18:51 47.30272 11.00673 13047 ft 253 kts 88°
2026-05-07 18:52 47.30365 11.03228 13051 ft 252 kts 88°
2026-05-07 18:52 47.30459 11.05809 13048 ft 252 kts 88°
2026-05-07 18:52 47.30399 11.08374 13048 ft 250 kts 101°
2026-05-07 18:52 47.29918 11.10824 13049 ft 248 kts 116°
2026-05-07 18:53 47.29228 11.13161 13048 ft 249 kts 115°
2026-05-07 18:53 47.28540 11.15505 12886 ft 252 kts 115°
2026-05-07 18:53 47.27839 11.17904 12432 ft 258 kts 115°
2026-05-07 18:53 47.27121 11.20355 11836 ft 260 kts 115°
2026-05-07 18:54 47.26419 11.22773 11040 ft 258 kts 114°
2026-05-07 18:54 47.25721 11.25257 9786 ft 267 kts 112°
2026-05-07 18:54 47.24899 11.27630 9320 ft 246 kts 130°
2026-05-07 18:54 47.23584 11.28911 9475 ft 225 kts 173°
2026-05-07 18:55 47.22084 11.28520 9355 ft 223 kts 215°
2026-05-07 18:55 47.21174 11.26741 8922 ft 226 kts 255°
2026-05-07 18:55 47.21172 11.24340 7793 ft 256 kts 289°
2026-05-07 18:55 47.22214 11.22231 6851 ft 255 kts 328°
2026-05-07 18:56 47.23864 11.21521 5454 ft 253 kts
2026-05-07 18:56 47.25648 11.22060 3923 ft 262 kts 34°
2026-05-07 18:56 47.26571 11.24004 3703 ft 221 kts 82°
2026-05-07 18:56 47.26259 11.26079 3199 ft 204 kts 118°
2026-05-07 18:57 47.25631 11.27819 2784 ft 182 kts 109°
2026-05-07 18:57 47.25499 11.29601 2467 ft 175 kts 83°
2026-05-07 18:57 47.25698 11.31363 2221 ft 177 kts 81°
2026-05-07 18:57 47.25883 11.33151 1960 ft 172 kts 81°
2026-05-07 18:58 47.26047 11.34663 1904 ft 96 kts 81°
2026-05-07 18:58 47.26100 11.35149 1899 ft 20 kts 82°
2026-05-07 18:58 47.26097 11.35241 1901 ft 6 kts 136°
2026-05-07 18:58 47.26054 11.35258 1897 ft 6 kts 167°
2026-05-07 18:59 47.26018 11.35271 1904 ft 5 kts 168°
2026-05-07 18:59 47.25979 11.35279 1904 ft 11 kts 173°
2026-05-07 18:59 47.25905 11.35275 1904 ft 9 kts 232°
2026-05-07 18:59 47.25894 11.35181 1904 ft 6 kts 257°
2026-05-07 19:00 47.25865 11.35175 1893 ft 4 kts 181°
2026-05-07 19:00 47.25840 11.35175 1899 ft 3 kts 175°
2026-05-07 19:00 47.25833 11.35177 1904 ft 0 kts 170°